Skip Page Navigation
NASA JPL Caltech
NASA Logo - Jet Propulsion Laboratory + View the NASA Portal
+ Center for Near-Earth Object Studies
JPL Home Earth Solar System Stars & Galaxies Technology
JPL Solar System Dynamics
BODIES ORBITS EPHEMERIDES TOOLS PHYSICAL DATA DISCOVERY FAQ SITE MAP
JPL Small-Body Database Browser
Search: [ help ]  
100676 (1997 XO5)
Classification: Main-belt Asteroid          SPK-ID: 2100676
Ephemeris | Orbit Diagram | Orbital Elements | Mission Design | Physical Parameters | Discovery Circumstances | Close-Approach Data ]

[ show orbit diagram ]
Orbital Elements at Epoch 2459000.5 (2020-May-31.0) TDB
Reference: JPL 14 (heliocentric ecliptic J2000)
 Element Value Uncertainty (1-sigma)   Units 
e .2874784614811798 4.8395e-08  
a 2.571065450740329 1.5577e-08 au
q 1.831939510594083 1.2936e-07 au
i 5.358324951135476 5.8132e-06 deg
node 102.9253025362769 5.3079e-05 deg
peri 255.1033878842758 5.4974e-05 deg
M 198.349804653374 1.9177e-05 deg
tp 2459676.648141400404
(2022-Apr-07.14814140)
8.5732e-05 TDB
period 1505.802887414983
4.12
1.3685e-05
3.747e-08
d
yr
n .2390751160120387 2.1727e-09 deg/d
Q 3.310191390886576 2.0055e-08 au
  Orbit Determination Parameters
   # obs. used (total)      333  
   data-arc span      8175 days (22.38 yr)  
   first obs. used      1997-12-04  
   last obs. used      2020-04-22  
   planetary ephem.      DE431  
   SB-pert. ephem.      SB431-N16  
   condition code      0  
   norm. resid. RMS      .57118  
   source      ORB  
   producer      Otto Matic  
   solution date      2020-May-20 17:54:51  

Additional Information
 Earth MOID = .836919 au 
 Jupiter MOID = 2.15917 au 
 T_jup = 3.364 
[ show covariance matrix ]

Ephemeris | Orbit Diagram | Orbital Elements | Mission Design | Physical Parameters | Discovery Circumstances | Close-Approach Data ]

Physical Parameter Table
Parameter Symbol Value Units Sigma Reference Notes
absolute magnitude H 16.2   n/a MPO469013  

100676 (1997 XO5)          Discovered 1997-Dec-06 by Farra d'Isonzo at Farra d'Isonzo
Reference: 20051019/Numbers.arcLast Updated: 2005-10-26

[ show close-approach data ]
Alternate Designations
 1997 XO5 = 2001 QG150 
Ephemeris | Orbit Diagram | Orbital Elements | Mission Design | Physical Parameters | Discovery Circumstances | Close-Approach Data ]
ABOUT SSD CREDITS/AWARDS PRIVACY/COPYRIGHT GLOSSARY LINKS
FirstGov 2020-Nov-25 06:14 UT
(server date/time)  
NASA Home Page
Site Manager:   Ryan S. Park
Webmaster  Alan B. Chamberlin